User: anonymous   Login
Location: JKWMA (FRAC)
(33.1803°N, 84.5512°W)
Time: 12:01:09
(UTC-04:00)
Language:

Hubble Space Telescope - Orbit

View from above orbital plane
View from above orbital plane
View from above satellite
View from above satellite

Ground track
Ground track

The orbit data is extracted from the following two-line orbital elements,

1 20580U 90037B   19290.90277208 +.00000406 +00000-0 +13785-4 0  9998
2 20580 028.4686 130.4028 0002660 353.1410 136.8485 15.09282302419135
Epoch (UTC): 17 October 2019 21:39:59
Eccentricity: 0.0002660
inclination: 28.4686°
perigee height: 536 km
apogee height: 540 km
right ascension of ascending node: 130.4028°
argument of perigee: 353.1410°
revolutions per day: 15.09282302
mean anomaly at epoch: 136.8485°
orbit number at epoch: 41913

The dashed part of the orbit path shows where the satellite is in the earth's shadow,  

DLR